When you browse on this site, cookies collect data to enhance your experience and personalize the content and advertising you see.
Visit our Privacy Policy to learn more. By continuing to use the site, you agree to this use of cookies and data.
  • In Portugal
  • List of Countries
  • For 7 days
  • Water Temperature
  • Satellite Maps
  • Weather Map
  • Weather Widgets
  • user-avatar
    Login

    Hourly Weather Santiago del Estero

    Today, 22 March, Friday

    Time Temperature Precipitation Wind Pressure Humidity
    00:00 +19°C° 0 mm 1 mps 744 mmHg 70%
    01:00 +19°C° 0 mm 1 mps 744 mmHg 71%
    02:00 +19°C° 0 mm 1 mps 744 mmHg 72%
    03:00 +19°C° 0 mm 1 mps 744 mmHg 73%
    04:00 +19°C° 0 mm 1 mps 744 mmHg 74%
    05:00 +17°C° 0 mm 2 mps 744 mmHg 74%
    06:00 +19°C° 0 mm 2 mps 744 mmHg 71%
    07:00 +20°C° 0 mm 3 mps 745 mmHg 67%
    08:00 +21°C° 0 mm 3 mps 745 mmHg 63%
    09:00 +23°C° 0 mm 4 mps 745 mmHg 58%
    10:00 +26°C° 0 mm 4 mps 745 mmHg 53%
    11:00 +28°C° 0 mm 4 mps 745 mmHg 47%
    12:00 +29°C° 0 mm 4 mps 745 mmHg 45%
    13:00 +30°C° 0 mm 4 mps 744 mmHg 42%
    14:00 +32°C° 0 mm 4 mps 744 mmHg 40%
    15:00 +31°C° 0 mm 3 mps 743 mmHg 40%
    16:00 +31°C° 0 mm 3 mps 743 mmHg 40%
    17:00 +31°C° 0 mm 3 mps 742 mmHg 40%
    18:00 +29°C° 0 mm 2 mps 743 mmHg 46%
    19:00 +27°C° 0 mm 2 mps 743 mmHg 53%
    20:00 +24°C° 0 mm 1 mps 743 mmHg 59%
    21:00 +24°C° 0 mm 2 mps 744 mmHg 58%
    22:00 +24°C° 0 mm 2 mps 744 mmHg 58%
    23:00 +24°C° 0 mm 3 mps 745 mmHg 57%

    Tomorrow, 23 March, Saturday

    Time Temperature Precipitation Wind Pressure Humidity
    00:00 +22°C° 0 mm 3 mps 744 mmHg 59%
    01:00 +22°C° 0 mm 3 mps 744 mmHg 61%
    02:00 +21°C° 0 mm 3 mps 744 mmHg 62%
    03:00 +20°C° 0 mm 3 mps 744 mmHg 64%
    04:00 +20°C° 0 mm 3 mps 744 mmHg 66%
    05:00 +19°C° 0 mm 3 mps 744 mmHg 68%
    06:00 +20°C° 0 mm 3 mps 744 mmHg 65%
    07:00 +21°C° 0 mm 4 mps 744 mmHg 63%
    08:00 +22°C° 0 mm 5 mps 744 mmHg 61%
    09:00 +25°C° 0 mm 5 mps 744 mmHg 55%
    10:00 +28°C° 0 mm 6 mps 744 mmHg 49%
    11:00 +30°C° 0 mm 6 mps 744 mmHg 44%
    12:00 +32°C° 0 mm 6 mps 743 mmHg 41%
    13:00 +34°C° 0 mm 6 mps 742 mmHg 38%
    14:00 +35°C° 0 mm 5 mps 741 mmHg 36%
    15:00 +35°C° 0 mm 5 mps 741 mmHg 36%
    16:00 +35°C° 0 mm 4 mps 740 mmHg 36%
    17:00 +35°C° 0 mm 4 mps 740 mmHg 36%
    18:00 +31°C° 0 mm 3 mps 740 mmHg 42%
    19:00 +29°C° 0 mm 2 mps 740 mmHg 48%
    20:00 +27°C° 0 mm 1 mps 741 mmHg 54%
    21:00 +26°C° 0 mm 2 mps 741 mmHg 54%
    22:00 +26°C° 0 mm 2 mps 742 mmHg 54%
    23:00 +26°C° 0 mm 3 mps 742 mmHg 55%

    Day after tomorrow, 24 March, Sunday

    Time Temperature Precipitation Wind Pressure Humidity
    00:00 +25°C° 0 mm 3 mps 742 mmHg 55%
    01:00 +24°C° 0 mm 3 mps 742 mmHg 56%
    02:00 +24°C° 0 mm 3 mps 742 mmHg 57%
    03:00 +23°C° 0 mm 2 mps 742 mmHg 59%
    04:00 +21°C° 0 mm 2 mps 743 mmHg 61%
    05:00 +22°C° 0 mm 1 mps 743 mmHg 63%
    06:00 +23°C° 0 mm 1 mps 743 mmHg 61%
    07:00 +24°C° 0 mm 1 mps 744 mmHg 59%
    08:00 +24°C° 0 mm 1 mps 745 mmHg 57%
    09:00 +25°C° 0 mm 1 mps 745 mmHg 55%
    10:00 +26°C° 0 mm 1 mps 745 mmHg 53%
    11:00 +27°C° 0 mm 1 mps 745 mmHg 52%
    12:00 +27°C° 0 mm 1 mps 744 mmHg 51%
    13:00 +28°C° 0 mm 2 mps 744 mmHg 50%
    14:00 +29°C° 0 mm 2 mps 743 mmHg 48%
    15:00 +29°C° 0 mm 2 mps 743 mmHg 47%
    16:00 +30°C° 0 mm 3 mps 743 mmHg 46%
    17:00 +30°C° 0 mm 3 mps 742 mmHg 45%
    18:00 +29°C° 0 mm 3 mps 743 mmHg 48%
    19:00 +27°C° 0 mm 3 mps 743 mmHg 51%
    20:00 +26°C° 0 mm 2 mps 744 mmHg 54%
    21:00 +25°C° 0 mm 3 mps 744 mmHg 54%
    22:00 +25°C° 0 mm 3 mps 744 mmHg 55%
    23:00 +25°C° 0 mm 3 mps 745 mmHg 55%

    25 March, Monday

    Time Temperature Precipitation Wind Pressure Humidity
    00:00 +25°C° 0 mm 3 mps 745 mmHg 55%
    01:00 +24°C° 0 mm 2 mps 745 mmHg 55%
    02:00 +24°C° 0 mm 2 mps 745 mmHg 55%
    03:00 +24°C° 0 mm 2 mps 745 mmHg 50%
    04:00 +23°C° 0 mm 2 mps 745 mmHg 44%
    05:00 +23°C° 0 mm 2 mps 745 mmHg 38%
    06:00 +22°C° 0 mm 3 mps 745 mmHg 38%
    07:00 +22°C° 0 mm 3 mps 746 mmHg 37%
    08:00 +22°C° 0 mm 3 mps 746 mmHg 36%
    09:00 +24°C° 0 mm 3 mps 747 mmHg 36%
    10:00 +24°C° 0 mm 3 mps 747 mmHg 36%
    11:00 +24°C° 0 mm 3 mps 747 mmHg 36%
    12:00 +24°C° 0 mm 3 mps 746 mmHg 37%
    13:00 +24°C° 0 mm 3 mps 746 mmHg 39%
    14:00 +24°C° 0 mm 3 mps 745 mmHg 41%
    15:00 +24°C° 0 mm 3 mps 745 mmHg 41%
    16:00 +23°C° 0 mm 4 mps 744 mmHg 41%
    17:00 +23°C° 0 mm 4 mps 744 mmHg 42%
    18:00 +22°C° 0 mm 3 mps 745 mmHg 43%
    19:00 +21°C° 0 mm 3 mps 745 mmHg 43%
    20:00 +21°C° 0 mm 2 mps 745 mmHg 44%
    21:00 +21°C° 0 mm 2 mps 746 mmHg 46%
    22:00 +21°C° 0 mm 2 mps 746 mmHg 48%
    23:00 +22°C° 0 mm 1 mps 746 mmHg 50%

    26 March, Tuesday

    Time Temperature Precipitation Wind Pressure Humidity
    00:00 +22°C° 0 mm 1 mps 746 mmHg 51%
    01:00 +22°C° 0 mm 1 mps 746 mmHg 52%
    02:00 +21°C° 0 mm 1 mps 746 mmHg 53%
    03:00 +21°C° 0 mm 1 mps 746 mmHg 54%
    04:00 +20°C° 0 mm 2 mps 746 mmHg 55%
    05:00 +20°C° 0 mm 2 mps 746 mmHg 56%
    06:00 +20°C° 0 mm 2 mps 747 mmHg 57%
    07:00 +20°C° 0 mm 2 mps 748 mmHg 58%
    08:00 +19°C° 0 mm 2 mps 748 mmHg 60%
    09:00 +20°C° 0 mm 2 mps 749 mmHg 57%
    10:00 +21°C° 0 mm 3 mps 749 mmHg 54%
    11:00 +21°C° 0 mm 3 mps 749 mmHg 51%
    12:00 +21°C° 0 mm 3 mps 749 mmHg 51%
    13:00 +21°C° 0 mm 3 mps 749 mmHg 52%
    14:00 +21°C° 0 mm 4 mps 749 mmHg 52%
    15:00 +22°C° 0 mm 4 mps 748 mmHg 52%
    16:00 +22°C° 0 mm 4 mps 748 mmHg 52%
    17:00 +23°C° 0 mm 4 mps 748 mmHg 52%
    18:00 +22°C° 0 mm 3 mps 748 mmHg 55%
    19:00 +21°C° 0 mm 3 mps 749 mmHg 58%
    20:00 +20°C° 0 mm 3 mps 749 mmHg 62%
    21:00 +20°C° 0 mm 3 mps 750 mmHg 63%
    22:00 +19°C° 0 mm 3 mps 750 mmHg 64%
    23:00 +19°C° 0 mm 3 mps 750 mmHg 64%

    27 March, Wednesday

    Time Temperature Precipitation Wind Pressure Humidity
    00:00 +18°C° 0 mm 2 mps 750 mmHg 70%
    01:00 +17°C° 0 mm 2 mps 749 mmHg 76%
    02:00 +16°C° 0 mm 1 mps 749 mmHg 81%
    03:00 +16°C° 0 mm 1 mps 749 mmHg 84%
    04:00 +16°C° 0 mm 1 mps 749 mmHg 86%
    05:00 +15°C° 0 mm 1 mps 749 mmHg 89%
    06:00 +16°C° 0 mm 1 mps 749 mmHg 84%
    07:00 +18°C° 0 mm 1 mps 749 mmHg 79%
    08:00 +19°C° 0 mm 2 mps 749 mmHg 74%
    09:00 +21°C° 0 mm 2 mps 749 mmHg 65%
    10:00 +24°C° 0 mm 2 mps 749 mmHg 56%
    11:00 +26°C° 0 mm 3 mps 748 mmHg 47%
    12:00 +27°C° 0 mm 3 mps 747 mmHg 44%
    13:00 +29°C° 0 mm 3 mps 746 mmHg 41%
    14:00 +30°C° 0 mm 4 mps 745 mmHg 38%
    15:00 +30°C° 0 mm 4 mps 745 mmHg 38%
    16:00 +30°C° 0 mm 3 mps 745 mmHg 38%
    17:00 +30°C° 0 mm 3 mps 744 mmHg 38%
    18:00 +28°C° 0 mm 3 mps 744 mmHg 44%
    19:00 +26°C° 0 mm 2 mps 745 mmHg 50%
    20:00 +24°C° 0 mm 2 mps 745 mmHg 56%
    21:00 +23°C° 0 mm 1 mps 745 mmHg 60%
    22:00 +22°C° 0 mm 1 mps 745 mmHg 64%
    23:00 +19°C° 0 mm 0 mps 745 mmHg 68%
    Show more